[[{"header":{"parameterUnit":"m.s-1","parameterCategory":1,"la1":30.2991,"la2":30.254,"lo1":-89.0895,"lo2":-89.0444,"dy":0.0017,"dx":0.0017,"nx":28,"ny":28,"refTime":"2023-03-16T21:00:00:Z","depth":0,"parameterNumber":2,"parameterNumberName":"U-component_of_WINDS"},"data":[0,0,0,0,0,0,0,0,0,0,0,0,0,0,0,0,0,0,0,0,0,0,0,0,0,0,0,0,0,0,0,0,0,0,0,0,0,0,0,0,0,0,0,0,0,0,0,0,0,0,0,0,0,0,0,0,0,0,-2.2896,-2.2896,0,-2.2919,-2.2919,-2.2919,-2.2869,-2.2868,-2.2866,-2.2865,-2.2889,-2.2891,-2.2893,0,0,0,0,0,0,0,0,0,0,0,0,0,-2.2809,-2.2811,-2.2896,-2.2896,-2.2897,-2.2919,-2.2919,-2.2919,-2.287,-2.2868,-2.2866,-2.2864,-2.2888,-2.2891,-2.2893,0,0,0,0,0,0,0,0,0,0,0,0,0,-2.2841,-2.2812,-2.2896,-2.2875,-2.2873,-2.2919,-2.2919,-2.292,-2.287,-2.2868,-2.2865,-2.2863,-2.2887,-2.289,-2.2894,-2.2962,0,0,-2.2903,-2.2905,0,0,0,0,0,0,0,0,-2.2839,-2.2844,-2.2877,-2.2876,-2.2874,-2.2889,-2.2897,-2.2934,-2.2871,-2.2871,-2.2865,-2.2862,-2.2891,-2.2894,-2.2903,-2.2963,-2.2964,-2.2904,-2.2906,-2.2907,-2.2908,0,0,0,0,0,0,0,-2.2837,-2.2843,-2.2905,-2.2878,-2.2876,-2.2864,-2.2865,-2.2904,-2.2894,-2.2871,-2.2867,-2.2871,-2.289,-2.29,-2.2903,-2.2964,-2.2904,-2.2906,-2.2908,-2.291,-2.3079,-2.3082,0,0,0,0,0,0,-2.2838,-2.2841,-2.2904,-2.2906,-2.285,-2.2867,-2.2869,-2.2887,-2.2894,-2.2893,-2.2873,-2.2868,-2.2896,-2.29,-2.2904,-2.2984,-2.2907,-2.291,-2.2912,-2.3077,-2.308,-2.3083,0,0,0,0,0,0,-2.2836,-2.2844,-2.2903,-2.2873,-2.2879,-2.2871,-2.2891,-2.2888,-2.2899,-2.2895,-2.2893,-2.2886,-2.2894,-2.29,-2.2947,-2.2984,-2.2911,-2.2914,-2.3074,-2.3078,-2.3081,-2.3144,0,0,0,0,0,0,-2.2834,-2.2843,-2.287,-2.2874,-2.2881,-2.2947,-2.2893,-2.2891,-2.2905,-2.2899,-2.2907,-2.2906,-2.2893,-2.2943,-2.2951,-2.2987,-2.2917,-2.3071,-2.3076,-2.308,-2.3139,-2.315,-2.3159,0,0,0,0,0,-2.2831,-2.2887,-2.2871,-2.2879,-2.2914,-2.2949,-2.2953,-2.2937,-2.2908,-2.2934,-2.2931,-2.2905,-2.2978,-2.2948,-2.2956,-2.2994,-2.3068,-2.3074,-2.308,-2.3134,-2.3147,-2.3159,0,0,0,0,0,0,-2.2888,-2.2887,-2.287,-2.2929,-2.2939,-2.2941,-2.2973,-2.2952,-2.2972,-2.2966,-2.2945,-2.2947,-2.2999,-2.3001,-2.2968,-2.306,-2.3018,-2.3026,-2.3057,-2.3069,-2.3079,-2.3078,-2.292,0,0,0,0,0,-2.2907,-2.2936,-2.2934,-2.2986,-2.2992,-2.2982,-2.2997,-2.2983,-2.2993,-2.2998,-2.2998,-2.301,-2.3035,-2.3052,-2.3075,-2.3138,-2.3139,-2.3168,-2.3178,-2.3187,-2.3194,-2.3227,-2.3239,-2.3102,-2.3102,-2.3102,0,0,-2.2948,-2.2951,-2.2971,-2.2997,-2.3004,-2.3034,-2.2986,-2.302,-2.3042,-2.3003,-2.3048,-2.3049,-2.306,-2.3115,-2.314,-2.3119,-2.3232,-2.3194,-2.3201,-2.3203,-2.3234,-2.3247,-2.3258,-2.3106,-2.3105,-2.3105,0,0,-2.3037,-2.3043,-2.3086,-2.3093,-2.3104,-2.3096,-2.3107,-2.3111,-2.311,-2.3154,-2.3125,-2.3151,-2.3195,-2.3204,-2.3214,-2.3305,-2.3281,-2.3313,-2.3366,-2.3398,-2.3409,-2.3418,-2.345,-2.3462,-2.332,-2.332,-2.332,0,-2.3087,-2.3131,-2.3112,-2.3147,-2.316,-2.3124,-2.3168,-2.3176,-2.3194,-2.3203,-2.3179,-2.3233,-2.3238,-2.3295,-2.3316,-2.3326,-2.3337,-2.3312,-2.3409,-2.3418,-2.3426,-2.3457,-2.3469,-2.3323,-2.3323,-2.3323,-2.3322,0,-2.3191,-2.3222,-2.3256,-2.3273,-2.3289,-2.3329,-2.3315,-2.3333,-2.3318,-2.3313,-2.3358,-2.3362,-2.3385,-2.3397,-2.3383,-2.3452,-2.3438,-2.3412,-2.337,-2.3444,-2.3472,-2.3483,-2.3329,-2.3327,-2.3326,-2.3325,0,0,-2.3319,-2.3323,-2.3336,-2.3343,-2.335,-2.3374,-2.3411,-2.3433,-2.3449,-2.3462,-2.3493,-2.353,-2.3505,-2.3517,-2.3503,-2.3531,-2.3602,-2.3501,-2.35,-2.3519,-2.3677,-2.3697,-2.3711,-2.3586,-2.3588,-2.359,-2.3676,0,-2.3407,-2.3472,-2.3454,-2.3519,-2.3546,-2.3512,-2.3545,-2.3553,-2.3549,-2.3571,-2.3566,-2.3593,-2.3558,-2.3565,-2.3591,-2.3588,-2.3633,-2.3581,-2.3614,-2.3616,-2.3613,-2.3726,-2.3747,-2.3829,-2.3687,-2.3689,-2.369,0,-2.352,-2.3536,-2.3603,-2.3604,-2.3615,-2.3645,-2.3663,-2.3685,-2.3693,-2.3688,-2.37,-2.368,-2.3716,-2.3673,-2.3723,-2.3688,-2.37,-2.37,-2.3703,-2.3706,-2.3658,-2.3732,-2.3854,-2.3867,-2.3707,-2.3706,-2.3705,0,-2.3606,-2.3645,-2.3689,-2.3696,-2.3699,-2.372,-2.3723,-2.3728,-2.3742,-2.3757,-2.3766,-2.3786,-2.3797,-2.3812,-2.3798,-2.3768,-2.3849,-2.3805,-2.3846,-2.3846,-2.3865,-2.3865,-2.3992,-2.3873,-2.3873,-2.3873,-2.3872,0,-2.3707,-2.3749,-2.3728,-2.3755,-2.3801,-2.378,-2.3826,-2.3825,-2.3829,-2.3856,-2.3827,-2.3853,-2.3832,-2.3855,-2.3844,-2.3886,-2.3891,-2.3888,-2.3885,-2.3891,-2.3891,-2.3899,-2.3893,-2.3876,-2.3875,-2.3874,-2.3874,0,-2.3812,-2.3799,-2.3846,-2.3844,-2.3845,-2.3879,-2.3877,-2.3902,-2.3895,-2.3929,-2.3935,-2.3924,-2.395,-2.3937,-2.3964,-2.3956,-2.4011,-2.4,-2.4008,-2.4005,-2.4047,-2.4043,-2.4184,-2.4201,-2.4071,-2.4073,-2.4074,0,-2.3878,-2.3909,-2.391,-2.3926,-2.393,-2.3955,-2.3968,-2.3948,-2.3963,-2.3974,-2.3998,-2.4021,-2.4038,-2.4081,-2.4075,-2.4095,-2.4085,-2.4132,-2.4088,-2.4092,-2.4085,-2.4084,-2.4086,-2.4142,-2.4143,-2.4145,-2.4146,0,-2.3995,-2.3987,-2.4007,-2.4025,-2.4041,-2.4054,-2.4065,-2.4079,-2.4059,-2.4078,-2.4103,-2.4117,-2.4143,-2.4166,-2.4183,-2.4186,-2.4163,-2.416,-2.417,-2.4177,-2.418,-2.4179,-2.4033,-2.4157,-2.4156,-2.4155,-2.4154,-2.4154,-2.4083,-2.4108,-2.4113,-2.4136,-2.4141,-2.4152,-2.4175,-2.417,-2.4191,-2.4211,-2.4197,-2.4227,-2.4233,-2.4253,-2.4258,-2.4281,-2.4262,-2.4277,-2.4281,-2.4285,-2.4291,-2.4176,-2.4284,-2.4284,-2.4284,-2.4283,-2.4283,0,-2.4199,-2.4199,-2.422,-2.4236,-2.4254,-2.4229,-2.4239,-2.4256,-2.4282,-2.4289,-2.4306,-2.4335,-2.4357,-2.4353,-2.4372,-2.4391,-2.4381,-2.4397,-2.4396,-2.4397,-2.4307,-2.4296,-2.4405,-2.4405,-2.4405,-2.4405,-2.4405,-2.4405,-2.4261,-2.4303,-2.4295,-2.4339,-2.4339,-2.4368,-2.4376,-2.4385,-2.439,-2.4423,-2.4441,-2.4437,-2.444,-2.4459,-2.4478,-2.4475,-2.4484,-2.4504,-2.4498,-2.4415,-2.4403,-2.4392,-2.4381,-2.4506,-2.4506,-2.4586,-2.4587,-2.4587]},{"header":{"parameterUnit":"m.s-1","parameterCategory":1,"la1":30.2991,"la2":30.254,"lo1":-89.0895,"lo2":-89.0444,"dy":0.0017,"dx":0.0017,"nx":28,"ny":28,"refTime":"2023-03-16T21:00:00:Z","depth":0,"parameterNumber":3,"parameterNumberName":"V-component_of_WINDS"},"data":[0,0,0,0,0,0,0,0,0,0,0,0,0,0,0,0,0,0,0,0,0,0,0,0,0,0,0,0,0,0,0,0,0,0,0,0,0,0,0,0,0,0,0,0,0,0,0,0,0,0,0,0,0,0,0,0,0,0,-8.5299,-8.5301,0,-8.5427,-8.5428,-8.5429,-8.5341,-8.5337,-8.5333,-8.5329,-8.5453,-8.546,-8.5466,0,0,0,0,0,0,0,0,0,0,0,0,0,-8.4973,-8.4979,-8.5299,-8.5301,-8.5303,-8.5426,-8.5428,-8.543,-8.5342,-8.5337,-8.5332,-8.5327,-8.545,-8.5459,-8.5467,0,0,0,0,0,0,0,0,0,0,0,0,0,-8.5109,-8.4981,-8.5299,-8.5274,-8.5273,-8.5426,-8.5428,-8.543,-8.5343,-8.5337,-8.5331,-8.5325,-8.5448,-8.5458,-8.5468,-8.5652,0,0,-8.55,-8.5505,0,0,0,0,0,0,0,0,-8.5101,-8.5121,-8.5276,-8.5276,-8.5275,-8.5362,-8.5358,-8.5504,-8.5344,-8.5316,-8.5329,-8.5322,-8.5427,-8.5439,-8.5475,-8.5657,-8.5663,-8.5501,-8.5507,-8.5512,-8.5515,0,0,0,0,0,0,0,-8.5092,-8.5115,-8.5349,-8.5278,-8.5278,-8.5253,-8.5266,-8.5385,-8.5403,-8.5318,-8.5312,-8.5328,-8.5425,-8.5466,-8.5478,-8.5664,-8.5501,-8.551,-8.5517,-8.5521,-8.6002,-8.6008,0,0,0,0,0,0,-8.5086,-8.5107,-8.5345,-8.5353,-8.5172,-8.5264,-8.5278,-8.534,-8.5401,-8.5405,-8.5333,-8.5324,-8.5451,-8.5466,-8.5482,-8.57,-8.5512,-8.5522,-8.5528,-8.5996,-8.6004,-8.6011,0,0,0,0,0,0,-8.5079,-8.5108,-8.534,-8.5229,-8.5257,-8.5276,-8.5346,-8.5345,-8.5386,-8.5413,-8.5415,-8.5372,-8.5446,-8.5467,-8.561,-8.5703,-8.5526,-8.5536,-8.5988,-8.5998,-8.6007,-8.6139,0,0,0,0,0,0,-8.507,-8.5106,-8.5177,-8.5231,-8.5263,-8.5469,-8.5352,-8.5352,-8.5405,-8.5393,-8.545,-8.5453,-8.5443,-8.5595,-8.5621,-8.5714,-8.5544,-8.598,-8.5993,-8.6004,-8.6127,-8.6152,-8.6174,0,0,0,0,0,-8.5059,-8.5208,-8.5182,-8.5211,-8.5353,-8.5475,-8.5493,-8.5481,-8.5413,-8.5484,-8.5501,-8.5451,-8.5689,-8.5611,-8.5639,-8.5737,-8.5974,-8.5989,-8.6003,-8.6116,-8.6147,-8.6174,0,0,0,0,0,0,-8.5162,-8.5215,-8.5186,-8.5358,-8.5413,-8.546,-8.5549,-8.5514,-8.5588,-8.5574,-8.5553,-8.5567,-8.5717,-8.5741,-8.5653,-8.5917,-8.582,-8.5841,-8.5896,-8.5926,-8.595,-8.5941,-8.5553,0,0,0,0,0,-8.5206,-8.5302,-8.5342,-8.5489,-8.5519,-8.553,-8.5582,-8.5568,-8.5623,-8.5646,-8.5674,-8.5727,-8.5814,-8.5871,-8.5952,-8.6129,-8.6139,-8.621,-8.6234,-8.6254,-8.6272,-8.6367,-8.6398,-8.6059,-8.6059,-8.6058,0,0,-8.5295,-8.5336,-8.5398,-8.5511,-8.5552,-8.5651,-8.555,-8.5658,-8.5731,-8.5661,-8.5799,-8.5822,-8.588,-8.6041,-8.6113,-8.6065,-8.6368,-8.6272,-8.6288,-8.6295,-8.6385,-8.6417,-8.6446,-8.6069,-8.6067,-8.6065,0,0,-8.5509,-8.555,-8.5678,-8.5721,-8.5786,-8.5792,-8.5823,-8.5875,-8.5888,-8.6027,-8.5977,-8.6061,-8.6211,-8.6255,-8.6296,-8.6527,-8.6483,-8.6554,-8.6678,-8.677,-8.6797,-8.6821,-8.6903,-8.6932,-8.6572,-8.6572,-8.6572,0,-8.5611,-8.5761,-8.5747,-8.586,-8.5911,-8.5855,-8.5983,-8.6025,-8.6112,-8.6147,-8.6093,-8.628,-8.6315,-8.6485,-8.6542,-8.6578,-8.661,-8.6547,-8.6795,-8.6818,-8.684,-8.6918,-8.6949,-8.658,-8.6579,-8.6578,-8.6578,0,-8.5883,-8.5987,-8.6082,-8.617,-8.6231,-8.6351,-8.6354,-8.6417,-8.6397,-8.6409,-8.655,-8.659,-8.6678,-8.6718,-8.6699,-8.6885,-8.6854,-8.6798,-8.67,-8.6881,-8.6954,-8.6983,-8.6592,-8.6589,-8.6587,-8.6585,0,0,-8.6166,-8.6246,-8.6281,-8.632,-8.6387,-8.6466,-8.6582,-8.6671,-8.6725,-8.6786,-8.6882,-8.7011,-8.696,-8.7007,-8.6992,-8.7074,-8.7253,-8.7007,-8.7008,-8.7051,-8.746,-8.7502,-8.7537,-8.7225,-8.723,-8.7235,-8.7455,0,-8.6383,-8.6589,-8.658,-8.6772,-8.6867,-8.6815,-8.6916,-8.6967,-8.6981,-8.7061,-8.7074,-8.7166,-8.7092,-8.712,-8.7198,-8.7215,-8.7335,-8.7199,-8.7312,-8.7316,-8.73,-8.7575,-8.762,-8.7826,-8.7484,-8.7489,-8.7492,0,-8.6665,-8.6739,-8.6941,-8.6994,-8.7033,-8.7125,-8.7205,-8.7284,-8.7339,-8.7343,-8.7397,-8.7369,-8.7484,-8.7384,-8.7541,-8.7449,-8.7495,-8.751,-8.7517,-8.7527,-8.7415,-8.7592,-8.7892,-8.7923,-8.7537,-8.7533,-8.753,0,-8.6851,-8.7,-8.714,-8.7175,-8.7241,-8.7306,-8.7336,-8.7386,-8.744,-8.7509,-8.7543,-8.7624,-8.7669,-8.7731,-8.7725,-8.7653,-8.7885,-8.7784,-8.789,-8.789,-8.7941,-8.7938,-8.8252,-8.7971,-8.7971,-8.797,-8.7969,0,-8.7094,-8.722,-8.7225,-8.7311,-8.745,-8.7437,-8.7573,-8.7595,-8.7641,-8.7729,-8.7687,-8.777,-8.7757,-8.7839,-8.7835,-8.7966,-8.7986,-8.7991,-8.7988,-8.7995,-8.7994,-8.8024,-8.801,-8.7978,-8.7976,-8.7975,-8.7973,0,-8.7326,-8.7334,-8.7484,-8.7534,-8.7549,-8.7649,-8.769,-8.7771,-8.7781,-8.7893,-8.7918,-8.7933,-8.8028,-8.8028,-8.8135,-8.8132,-8.8293,-8.8273,-8.8275,-8.8271,-8.8377,-8.8367,-8.8721,-8.8766,-8.8456,-8.8459,-8.8462,0,-8.7481,-8.7577,-8.7638,-8.7695,-8.773,-8.7822,-8.7877,-8.7868,-8.7926,-8.7997,-8.8069,-8.8161,-8.8233,-8.8387,-8.8406,-8.8487,-8.8469,-8.8588,-8.8481,-8.8485,-8.8471,-8.8466,-8.8475,-8.8609,-8.8612,-8.8615,-8.8617,0,-8.7755,-8.7755,-8.7838,-8.7923,-8.7991,-8.8056,-8.8117,-8.8165,-8.8162,-8.823,-8.8328,-8.8384,-8.8495,-8.8586,-8.8665,-8.8692,-8.8654,-8.8651,-8.868,-8.8687,-8.8684,-8.8687,-8.8332,-8.8643,-8.864,-8.8638,-8.8637,-8.8636,-8.7953,-8.8036,-8.8092,-8.8185,-8.823,-8.8288,-8.8367,-8.8387,-8.8469,-8.8561,-8.8549,-8.8658,-8.8709,-8.8812,-8.8847,-8.893,-8.8888,-8.893,-8.894,-8.8951,-8.8963,-8.8672,-8.8944,-8.8943,-8.8943,-8.8942,-8.8942,0,-8.8225,-8.8259,-8.8345,-8.8433,-8.8506,-8.8466,-8.8531,-8.8594,-8.8691,-8.8744,-8.8817,-8.8929,-8.9016,-8.9043,-8.9127,-8.9189,-8.9173,-8.9211,-8.9206,-8.9213,-8.8995,-8.8962,-8.9222,-8.9222,-8.9222,-8.9222,-8.9222,-8.9222,-8.8375,-8.8513,-8.852,-8.8679,-8.8711,-8.8819,-8.886,-8.8912,-8.8954,-8.9082,-8.9155,-8.9173,-8.9214,-8.9301,-8.9379,-8.9384,-8.9417,-8.9462,-8.946,-8.9256,-8.9228,-8.9201,-8.917,-8.947,-8.947,-8.9671,-8.9673,-8.9674]}]]